Regional Weather Roundup
Issued by NWS Austin/San Antonio, TX

Home | Current Version | Previous Version | Text Only | Print | Product List | Glossary On
Versions: 1 2 3 4 5 6 7 8 9 10 11 12 13 14 15 16 17 18 19 20 21 22 23 24 25 26 27 28 29 30 31 32 33 34 35 36 37 38 39 40 41 42 43 44 45 46 47 48 49 50
000
ASUS44 KEWX 241010
RWREWX
SOUTH TEXAS REGIONAL WEATHER ROUNDUP
NATIONAL WEATHER SERVICE AUSTIN/SAN ANTONIO TX
400 AM CST THU JAN 24 2019

NOTE: "FAIR" INDICATED FEW OR NO CLOUDS BELOW 12,000 FEET WITH NO
SIGNIFICANT WEATHER AND/OR OBSTRUCTIONS TO VISIBILITY.

* - THESE STATIONS ARE NOT NWS OR FAA STATIONS...AND ARE NOT SUBJECT
    TO NWS AND FAA QUALITY CONTROL.

TXZ171-172-183>190-241100-
TEXAS HILL COUNTRY AND EDWARDS PLATEAU

CITY           SKY/WX    TMP DP  RH WIND       PRES   REMARKS
JUNCTION       CLEAR     25  21  85 W3        30.06F
*LLANO         CLEAR     27  23  86 CALM      30.11F
BURNET         CLEAR     31  23  72 CALM      30.09F
*HORSESHOE BAY CLEAR     29  27  90 CALM      30.08F
*KERRVILLE     CLEAR     26  23  87 CALM      30.08S
*FREDERICKSBRG CLEAR     27  22  82 CALM      30.07F
*ROCKSPRINGS   PTCLDY    34  19  55 S7        30.08F WCI  28
*BOERNE STAGE  PTCLDY    28  25  86 CALM      30.10S
*CASTROVILLE   PTCLDY    30  28  89 NW5       30.13S WCI  26
HONDO          CLEAR     29  25  85 N6        30.10F WCI  23
*UVALDE        CLEAR     31  25  78 NE5       30.10F WCI  26
DEL RIO        CLEAR     35  25  66 E9        30.05F WCI  28
LAUGHLIN AFB   CLEAR     31  23  72 E5        30.06F WCI  26
CARRIZO SPRGS  NOT AVBL
$$

TXZ173-191>194-202-209-217>225-228-241100-
CENTRAL AND SOUTH CENTRAL TEXAS

CITY           SKY/WX    TMP DP  RH WIND       PRES   REMARKS
GEORGETOWN     PTCLDY    32  26  78 CALM      30.11F
AUSTIN/BERGSTM PTCLDY    29  25  85 CALM      30.11S
AUSTIN/MABRY   PTCLDY    34  27  75 CALM      30.11F
*AUSTIN/EXEC   PTCLDY    36  27  69 CALM      30.11F
*LAGO VISTA    PTCLDY    40  26  56 S5        30.08F WCI  37
SAN MARCOS     PTCLDY    27  24  89 CALM      30.12F
NEW BRAUNFELS  PTCLDY    32  26  78 CALM      30.10F
RANDOLPH AFB   PTCLDY    32  26  77 CALM      30.10F
PT SAN ANTONIO PTCLDY    32  27  83 N6        30.09F WCI  26
SAN ANTONIO    PTCLDY    33  26  75 NW5       30.11S WCI  29
STINSON FIELD  CLEAR     33  26  75 CALM      30.10S
*LA GRANGE     CLEAR     32  31  94 CALM      30.11R
*GIDDINGS      CLEAR     31  28  90 CALM      30.13R
*GONZALES      CLEAR     34  32  94 CALM      30.12F
$$

TXZ163>164-176>182-195>201-210>213-226-227-235-241100-
SOUTHEAST TEXAS

CITY           SKY/WX    TMP DP  RH WIND       PRES   REMARKS
COLLEGE STN    CLEAR     33  29  85 CALM      30.11F
*BRYAN         CLEAR     31  31  96 CALM      30.13S
*CALDWELL      CLEAR     30  27  90 CALM      30.12R
*CROCKETT        N/A     27  25  93 CALM      30.14S
*BRENHAM       CLEAR     31  31 100 CALM      30.12S
HUNTSVILLE     CLEAR     29  26  89 CALM      30.10F
CONROE         CLEAR     27  27 100 CALM      30.11F
HOUSTON BUSH   CLEAR     32  31  96 SW3       30.12S
HOUSTON HOBBY  FAIR      33  30  88 CALM      30.12S
*HOUSTON SW AP FAIR      29  24  81 CALM      30.14S
PEARLAND       FAIR      31  31 100 CALM      30.14F
HOUSTON HOOKS  FAIR      31  30  96 CALM      30.12S
ELLINGTON FLD  CLEAR     36  30  80 CALM      30.14
SUGAR LAND     FAIR      33  30  88 CALM      30.12F
*HOUSTON EXEC  FAIR      34  32  93 CALM      30.14R
*CLEVELAND MUN FAIR      29  29 100 CALM      30.13F
*WHARTON       CLEAR     33  32  96 CALM      30.14S
*COLUMBUS      FAIR      32  30  92 CALM      30.15R
*EAGLE LAKE    SUNNY     34  32  95 W3        30.13
$$

TXZ214>216-236>238-241100-
THE UPPER TEXAS COAST

CITY           SKY/WX    TMP DP  RH WIND       PRES   REMARKS
*ORANGE        FAIR      32  32 100 CALM      30.15R
PORT ARTHUR    FAIR      33  28  81 W5        30.13R WCI  29
GALVESTON      FAIR      41  35  79 N6        30.13F WCI  37
ANGLETON       FAIR      33  31  92 CALM      30.13S
*BAY CITY      CLEAR     33  33  99 CALM      30.13S
PALACIOS       CLEAR     40  33  76 E5        30.13F WCI  37
$$

TXZ229>234-239>247-241100-
TEXAS COASTAL BEND AND RIO GRANDE PLAINS

CITY           SKY/WX    TMP DP  RH WIND       PRES   REMARKS
VICTORIA       CLEAR     34  32  92 N3        30.14R
*BEEVILLE      CLEAR     44  32  63 SW5       30.13R WCI  41
ROCKPORT       CLEAR     35  34  96 W3        30.13S
*PORT ARANSAS  CLEAR     45  39  81 CALM      30.14F
*PORT LAVACA   CLEAR     39  36  87 CALM      30.13S
*INGLESIDE     CLEAR     42  35  77 NW6       30.13S WCI  38
CORPUS CHRISTI CLEAR     36  31  82 W8        30.14S WCI  30
CORPUS NAS     PTCLDY    42  36  79 W10       30.13S WCI  36
*ROBSTOWN      NOT AVBL
ALICE          CLEAR     35  28  75 W3        30.12F
KINGSVILLE NAS CLEAR     36  30  79 MISG      30.13F
COTULLA        CLEAR     36  25  64 SE6       30.10F WCI  31
LAREDO         CLEAR     41  25  53 SE9       30.10F WCI  35
$$

TXZ248>255-241100-
DEEP SOUTH TEXAS

CITY           SKY/WX    TMP DP  RH WIND       PRES   REMARKS
BROWNSVILLE    FAIR      42  33  70 CALM      30.15F
PORT ISABEL    FAIR      41  32  70 W5        30.14F WCI  38
HARLINGEN      CLEAR     42  29  59 SW6       30.14F WCI  38
*HEBBRONVILLE  CLEAR     36  24  64 CALM      30.12S
MCALLEN        CLEAR     43  31  62 E3        30.14F
*WESLACO       PTSUNNY   40  28  62 CALM      30.14
FALFURRIAS     CLEAR     36  28  71 CALM      30.14S
EDINBURG       FAIR      41  29  64 CALM      30.15F
*ZAPATA        FAIR      33  27  76 SE3       30.12F
$$

TXZ213>215-236>238-242>244-246-247-251-254-255-241100-
CMAN STATIONS

STATION/POSITION TIME  TEMP    WIND        PRES    WAVE
                       AIR SEA DIR/SP/G            HT/PER
                 (UTC) (F)     (DEG/KT/KT) (MB)    (FT/S)
SABINE PASS      0942   38 55  290/  4/  6 1022.0
SEA RIM ST PARK  1000   36     290/  3/  4 1021.0
NORTH JETTY/GLS  0942   42 54   10/  5/  7 1019.9
EAGLE POINT      0942   40 51  360/  2/  3 1020.5
MORGANS POINT    0942   41 54   20/  3/  4 1020.2
PORT O`CONNOR    0942   50 51   80/  8/  9 1019.7
PORT ARANSAS     1000   53 58  340/  3/  4 1020.1
MALAQUITE BEACH  0936   49 60  260/  5/  5 1019.9
BAFFIN BAY       0936   50 55  240/  9/ 11 1020.6
PORT ISABEL      0936   44 61  260/  4/  5 1020.8
$$



USA.gov is the U.S. government's official web portal to all federal, state and local government web resources and services.